Tracking 29892 objects as of 21-Nov-2024
HD Live streaming from Space Station
objects crossing your sky now

STARLINK-3813

Track STARLINK-3813 now!
10-day predictions
STARLINK-3813 is classified as:


NORAD ID: 52482
Int'l Code: 2022-049AH
Perigee: 545.9 km
Apogee: 547.9 km
Inclination: 53.2 °
Period: 95.4 minutes
Semi major axis: 6917 km
RCS: Unknown
Launch date: May 6, 2022
Source: United States (US)
Launch site: AIR FORCE EASTERN TEST RANGE (AFETR)
Your satellite tracking list
Your tracking list is empty




NASA's NSSDC Master Catalog

Two Line Element Set (TLE):
1 52482U 22049AH  24325.55997315  .00000248  00000-0  33647-4 0  9999
2 52482  53.2171  17.5700 0001453  92.0524 268.0634 15.08844325140810
Source of the keplerian elements: AFSPC